Location: Ferchesar
(52.6477°N, 12.4298°E)
Time: 04:31:45
(UTC+01:00)

Explorer 7 - Pass Details

Date: 16 December 2021
Orbit: 483 x 674 km, 50.3° (Epoch: 21 January)

Event Time Altitude Azimuth Distance (km) Brightness Sun altitude
Rises 02:00:32 0° 230° (SW) 2,967 - -53.5°
Reaches altitude 10° 02:03:02 10° 222° (SW) 2,035 - -53.2°
Maximum altitude 02:07:21 37° 156° (SSE) 966 - -52.7°
Drops below altitude 10° 02:11:27 10° 88° (E) 1,938 - -52.2°
Sets 02:13:47 0° 81° (E) 2,806 - -51.9°
